TimeCDT,TemperatureF,Dew PointF,Humidity,Sea Level PressureIn,VisibilityMPH,Wind Direction,Wind SpeedMPH,Gust SpeedMPH,PrecipitationIn,Events,Conditions,WindDirDegrees,DateUTC
12:12 AM,35.6,26.6,70,30.04,10.0,West,3.5,-,N/A,,Clear,280,2011-10-29 05:12:00
12:33 AM,35.6,26.6,70,30.04,10.0,WNW,4.6,-,N/A,,Clear,290,2011-10-29 05:33:00
12:53 AM,35.6,26.6,70,30.04,10.0,Calm,Calm,-,N/A,,Clear,0,2011-10-29 05:53:00
1:12 AM,33.8,26.6,75,30.04,10.0,West,3.5,-,N/A,,Clear,270,2011-10-29 06:12:00
1:52 AM,33.8,28.4,81,30.05,10.0,Calm,Calm,-,N/A,,Clear,0,2011-10-29 06:52:00
2:13 AM,32.0,28.4,87,30.05,10.0,Calm,Calm,-,N/A,,Clear,0,2011-10-29 07:13:00
2:33 AM,30.2,28.4,93,30.04,10.0,Calm,Calm,-,N/A,,Clear,0,2011-10-29 07:33:00
2:52 AM,32.0,28.4,87,30.04,10.0,WSW,3.5,-,N/A,,Clear,250,2011-10-29 07:52:00
3:13 AM,32.0,26.6,80,30.04,10.0,WSW,4.6,-,N/A,,Clear,250,2011-10-29 08:13:00
3:33 AM,30.2,26.6,86,30.04,10.0,WSW,3.5,-,N/A,,Clear,250,2011-10-29 08:33:00
3:52 AM,32.0,26.6,80,30.04,10.0,West,4.6,-,N/A,,Clear,260,2011-10-29 08:52:00
4:13 AM,32.0,26.6,80,30.03,10.0,West,4.6,-,N/A,,Clear,260,2011-10-29 09:13:00
4:33 AM,30.2,26.6,86,30.03,10.0,Calm,Calm,-,N/A,,Clear,0,2011-10-29 09:33:00
5:13 AM,30.2,26.6,86,30.03,10.0,Calm,Calm,-,N/A,,Clear,0,2011-10-29 10:13:00
5:52 AM,30.2,26.6,86,30.04,10.0,Calm,Calm,-,N/A,,Clear,0,2011-10-29 10:52:00
6:13 AM,28.4,26.6,93,30.04,10.0,Calm,Calm,-,N/A,,Clear,0,2011-10-29 11:13:00
6:33 AM,28.4,26.6,93,30.04,10.0,Calm,Calm,-,N/A,,Clear,0,2011-10-29 11:33:00
6:53 AM,28.4,26.6,93,30.04,10.0,Calm,Calm,-,N/A,,Clear,0,2011-10-29 11:53:00
7:12 AM,28.4,26.6,93,30.04,10.0,Calm,Calm,-,N/A,,Clear,0,2011-10-29 12:12:00
7:33 AM,28.4,26.6,93,30.03,10.0,Calm,Calm,-,N/A,,Clear,0,2011-10-29 12:33:00
7:53 AM,26.6,24.8,93,30.03,10.0,Calm,Calm,-,N/A,,Clear,0,2011-10-29 12:53:00
8:13 AM,26.6,26.6,100,30.04,10.0,Calm,Calm,-,N/A,,Clear,0,2011-10-29 13:13:00
8:53 AM,30.2,28.4,93,30.04,10.0,Calm,Calm,-,N/A,,Clear,0,2011-10-29 13:53:00
9:12 AM,32.0,28.4,87,30.04,10.0,Calm,Calm,-,N/A,,Clear,0,2011-10-29 14:12:00
9:33 AM,33.8,30.2,87,30.05,10.0,Calm,Calm,-,N/A,,Clear,0,2011-10-29 14:33:00
9:53 AM,35.6,30.2,81,30.05,10.0,Calm,Calm,-,N/A,,Clear,0,2011-10-29 14:53:00
10:13 AM,39.2,32.0,75,30.04,10.0,Calm,Calm,-,N/A,,Clear,0,2011-10-29 15:13:00
10:33 AM,39.2,32.0,75,30.04,10.0,Calm,Calm,-,N/A,,Clear,0,2011-10-29 15:33:00
10:53 AM,42.8,32.0,66,30.04,10.0,Calm,Calm,-,N/A,,Clear,0,2011-10-29 15:53:00
11:13 AM,44.6,28.4,53,30.03,10.0,SSW,3.5,-,N/A,,Clear,210,2011-10-29 16:13:00
11:33 AM,46.4,28.4,50,30.03,10.0,SSE,3.5,-,N/A,,Clear,160,2011-10-29 16:33:00
11:53 AM,48.2,28.4,46,30.03,10.0,South,3.5,-,N/A,,Clear,170,2011-10-29 16:53:00
12:53 PM,50.0,26.6,40,30.01,10.0,SSE,6.9,-,N/A,,Clear,150,2011-10-29 17:53:00
1:13 PM,50.0,24.8,37,29.99,10.0,SSE,5.8,-,N/A,,Clear,150,2011-10-29 18:13:00
1:33 PM,50.0,23.0,35,29.99,10.0,South,4.6,-,N/A,,Clear,170,2011-10-29 18:33:00
1:52 PM,50.0,23.0,35,29.98,10.0,SSE,4.6,-,N/A,,Clear,160,2011-10-29 18:52:00
2:13 PM,50.0,23.0,35,29.97,10.0,SSE,5.8,-,N/A,,Clear,150,2011-10-29 19:13:00
2:33 PM,50.0,21.2,32,29.96,10.0,SE,8.1,-,N/A,,Clear,140,2011-10-29 19:33:00
2:53 PM,50.0,21.2,32,-9999,10.0,SSE,4.6,-,N/A,,Clear,150,2011-10-29 19:53:00
3:13 PM,50.0,21.2,32,29.95,10.0,SSE,6.9,-,N/A,,Clear,150,2011-10-29 20:13:00
3:32 PM,51.8,21.2,30,29.94,10.0,SSE,8.1,-,N/A,,Clear,150,2011-10-29 20:32:00
3:53 PM,51.8,21.2,30,29.94,10.0,SE,9.2,-,N/A,,Clear,140,2011-10-29 20:53:00
4:13 PM,50.0,21.2,32,29.93,10.0,SE,8.1,-,N/A,,Clear,140,2011-10-29 21:13:00
4:33 PM,50.0,19.4,30,29.93,10.0,SE,9.2,-,N/A,,Clear,140,2011-10-29 21:33:00
4:53 PM,50.0,21.2,32,29.93,10.0,SE,10.4,-,N/A,,Clear,130,2011-10-29 21:53:00
5:13 PM,48.2,21.2,34,29.92,10.0,SE,10.4,-,N/A,,Clear,130,2011-10-29 22:13:00
5:32 PM,48.2,21.2,34,29.92,10.0,SE,9.2,-,N/A,,Clear,130,2011-10-29 22:32:00
5:53 PM,46.4,23.0,40,29.92,10.0,SE,8.1,-,N/A,,Clear,130,2011-10-29 22:53:00
6:13 PM,46.4,23.0,40,29.91,10.0,ESE,9.2,-,N/A,,Clear,120,2011-10-29 23:13:00
6:33 PM,46.4,23.0,40,29.91,10.0,ESE,9.2,-,N/A,,Clear,120,2011-10-29 23:33:00
6:53 PM,44.6,23.0,43,29.91,10.0,ESE,9.2,-,N/A,,Clear,120,2011-10-29 23:53:00
7:13 PM,46.4,23.0,40,29.91,10.0,ESE,9.2,-,N/A,,Clear,120,2011-10-30 00:13:00
7:32 PM,44.6,24.8,46,29.91,10.0,ESE,9.2,-,N/A,,Clear,120,2011-10-30 00:32:00
7:53 PM,44.6,23.0,43,29.91,10.0,ESE,10.4,-,N/A,,Scattered Clouds,120,2011-10-30 00:53:00
8:13 PM,44.6,23.0,43,29.91,10.0,ESE,9.2,-,N/A,,Mostly Cloudy,120,2011-10-30 01:13:00
8:33 PM,44.6,23.0,43,29.92,10.0,ESE,9.2,-,N/A,,Overcast,120,2011-10-30 01:33:00
8:53 PM,44.6,23.0,43,29.91,10.0,ESE,9.2,-,N/A,,Overcast,120,2011-10-30 01:53:00
9:13 PM,44.6,21.2,39,29.91,10.0,SE,10.4,-,N/A,,Mostly Cloudy,130,2011-10-30 02:13:00
9:32 PM,44.6,21.2,39,29.90,10.0,SE,10.4,-,N/A,,Overcast,130,2011-10-30 02:32:00
9:53 PM,44.6,21.2,39,29.90,10.0,SE,8.1,-,N/A,,Mostly Cloudy,130,2011-10-30 02:53:00
10:13 PM,44.6,21.2,39,29.89,10.0,SE,11.5,-,N/A,,Overcast,130,2011-10-30 03:13:00
10:33 PM,46.4,21.2,37,29.89,10.0,SE,12.7,18.4,N/A,,Mostly Cloudy,130,2011-10-30 03:33:00
10:53 PM,44.6,21.2,39,29.88,10.0,SE,9.2,-,N/A,,Mostly Cloudy,140,2011-10-30 03:53:00
11:13 PM,44.6,21.2,39,29.87,10.0,SE,10.4,-,N/A,,Scattered Clouds,140,2011-10-30 04:13:00
11:33 PM,44.6,21.2,39,29.86,10.0,SE,10.4,-,N/A,,Scattered Clouds,140,2011-10-30 04:33:00
11:53 PM,44.6,21.2,39,29.86,10.0,SE,10.4,-,N/A,,Mostly Cloudy,140,2011-10-30 04:53:00